Skip Page Navigation
NASA JPL Caltech
NASA Logo - Jet Propulsion Laboratory + View the NASA Portal
+ Center for Near-Earth Object Studies
JPL Home Earth Solar System Stars & Galaxies Technology
JPL Solar System Dynamics
BODIES ORBITS EPHEMERIDES TOOLS PHYSICAL DATA DISCOVERY FAQ SITE MAP
IMPORTANT: The SSD Announcement email list is now available. Major changes are coming in the near future, including possible hostname and/or URL changes. To be notified of such changes, subscribe to this email list.

Please visit this page for more details.


JPL Small-Body Database Browser
Search: [ help ]  
56738 (2000 NV20)
Classification: Main-belt Asteroid          SPK-ID: 2056738
Ephemeris | Orbit Diagram | Orbital Elements | Mission Design | Physical Parameters | Discovery Circumstances ]

[ show orbit diagram ]
Orbital Elements at Epoch 2458600.5 (2019-Apr-27.0) TDB
Reference: JPL 19 (heliocentric ecliptic J2000)
 Element Value Uncertainty (1-sigma)   Units 
e .01953562790844946 3.5559e-08  
a 2.679758125546824 1.5984e-08 au
q 2.627407367921497 9.8738e-08 au
i 10.90051676183286 4.7264e-06 deg
node 143.080964951066 2.7038e-05 deg
peri 315.3201590378887 0.00020376 deg
M 321.4809068296896 0.00019884 deg
tp 2458771.941269941679
(2019-Oct-15.44126994)
0.00088488 TDB
period 1602.292580100924
4.39
1.4336e-05
3.925e-08
d
yr
n .224678067208752 2.0103e-09 deg/d
Q 2.732108883172151 1.6297e-08 au
  Orbit Determination Parameters
   # obs. used (total)      712  
   data-arc span      10370 days (28.39 yr)  
   first obs. used      1991-06-14  
   last obs. used      2019-11-04  
   planetary ephem.      DE431  
   SB-pert. ephem.      SB431-N16  
   condition code      0  
   norm. resid. RMS      .58925  
   source      ORB  
   producer      Otto Matic  
   solution date      2019-Dec-04 04:54:22  

Additional Information
 Earth MOID = 1.65129 au 
 Jupiter MOID = 2.29028 au 
 T_jup = 3.351 
[ show covariance matrix ]

Ephemeris | Orbit Diagram | Orbital Elements | Mission Design | Physical Parameters | Discovery Circumstances ]

Physical Parameter Table
Parameter Symbol Value Units Sigma Reference Notes
absolute magnitude H 15.0   n/a MPO452941  

56738 (2000 NV20)          Discovered 2000-Jul-06 by LONEOS at Anderson Mesa
Reference: 20030318/Numbers.arcLast Updated: 2004-04-19
Ephemeris | Orbit Diagram | Orbital Elements | Mission Design | Physical Parameters | Discovery Circumstances ]
ABOUT SSD CREDITS/AWARDS PRIVACY/COPYRIGHT GLOSSARY LINKS
FirstGov 2020-Jan-19 20:09 UT
(server date/time)  
NASA Home Page
Site Manager:   Ryan S. Park
Webmaster  Alan B. Chamberlin